IP工具

IP地址信息

as自治系统数

全球域名

ip转换

葡萄牙as自治系统、Portugal自治系统as、葡萄牙分配自治系统号码数

该页面显示是葡萄牙全球所有as自治系统号码数据。自治系统号码数据来自世界asn分配中心数据系统,准确率高,每天会自动 同步国际信息,最新更新时间是:2024-06-12,截止到当天,全球一共分配了: 191459 个as自治系统号码,葡萄牙所分配的as自治系统号码数是:143 个! 占总as自治系统比:0.075%,所分配自治系统总数全球排行:73 位!下载葡萄牙as自治系统号码数据 TXT格式  file下载

排序 as自治系统号码 注册机构 分配IP个数 登记时间
1 AS2860 NOS_COMUNICACOES, PT 2,073,088个 19940118
2 AS3243 MEO-RESIDENCIAL, PT 1,853,952个 19940729
3 AS12353 VODAFONE-PT Vodafone Portugal, PT 1,207,552个 19990406
4 AS42863 MEO-MOVEL, PT 254,976个 20070426
5 AS13156 AS13156 Palmela, PT 214,016个 20000412
6 AS15525 MEO-EMPRESAS, PT 156,672个 20000727
7 AS24698 OPTIMUS-AS, PT 131,072个 20020225
8 AS207990 HR-CUSTOMER, IN 125,440个 19700101
9 AS9186 ONI Lisbon, Portugal., PT 87,296个 19990205
10 AS12926 ARTELECOMPT Ar Telecom Autonomous System, PT 74,752个 20000107
11 AS15457 NOS_MADEIRA, PT 72,704个 20000704
12 AS5516 INESC Lisboa, Portugal, PT 66,816个 19960116
13 AS5626 ONI Internet Service Provider, PT 49,152个 19960605
14 AS204287 HOSTROYALE_TECHNOLOGIES, IN 43,264个 20150709
15 AS8657 MEO-INTERNACIONAL MEO - SERVICOS DE COMUNICACOES E MULTIMEDIA S.A., PT 30,208个 19980210
16 AS42580 CABOTVA, PT 29,696个 20070316
17 AS24768 ALMOUROLTEC, PT 23,552个 20091112
18 AS199155 REDE-MEC, PT 20,480个 20120824
19 AS30947 , 16,384个 20040123
20 AS12542 TVCABO-AS, PT 9,728个 19990707
21 AS33876 FLESK-AS, PT 9,728个 20040901
22 AS12305 NORTENET, PT 9,216个 19990301
23 AS49349 DOTSI, PT 9,216个 20090525
24 AS43006 DIGITAL-REALTY-IE, GB 8,960个 20070523
25 AS6773 Rua Soeiro Pereira Gomes, Lote 1, PT 8,192个 19960924
26 AS47202 LAZER, PT 7,168个 20080515
27 AS61154 INTEGRADESIGN, PL 6,144个 20130129
28 AS206278 NETCLOUDSTORAGE, US 6,144个 19700101
29 AS29003 REFERTELECOM-AS, PT 5,376个 20030506
30 AS35038 INESCTEC Instituto de Engenharia de Sistemas e Computadores, Tecnologia e Ci?ncia, PT 2,816个 20050520
31 AS48631 ODINE-AS, AE 2,816个 20081219
32 AS208277 CIBERCONCEITO, PT 2,816个 19700101
33 AS25060 INE-AS, PT 2,048个 20020715
34 AS44785 RBT-AS, PT 2,048个 20080310
35 AS62416 PTSERVIDOR, PT 2,048个 20130927
36 AS202170 DSTELECOM-AS, PT 2,048个 20140320
37 AS205431 NETFIRE-TEC NetFire tec Telecom, BR 2,048个 19700101
38 AS49941 EUROTUX, PT 1,792个 20091014
39 AS8826 SIEMENS_UAE2 UAE, DE 1,536个 19980609
40 AS47784 INSTINF, PT 1,536个 20080819
41 AS57350 EUROPEAN-MARITIME-SAFETY-AGENCY-AS EMSA, PT 1,536个 20111005
42 AS204094 I4W, PT 1,280个 19700101
43 AS211772 JOAO-AS, PT 1,280个 19700101
44 AS12527 MILLENNIUMBCP-AS, PT 1,024个 19990701
45 AS35766 MABNA-CLOUD, IR 1,024个 20051021
46 AS59819 JWEMEA-AS, DE 1,024个 20140916
47 AS199993 DNS, PT 1,024个 20131108
48 AS201449 DAB-AS, PT 1,024个 20141023
49 AS201523 EDP-AS, PT 1,024个 20141003
50 AS201782 MAKEITSIMPLE, PT 1,024个 20140715
51 AS201170 ANA-AS, PT 1,024个 20150109
52 AS200706 ONEIT, PT 1,024个 20150430
53 AS203491 ESTORIL, PT 1,024个 19700101
54 AS203119 TIMWE, ES 1,024个 19700101
55 AS207112 REN, PT 1,024个 19700101
56 AS202341 MYCLOUD-, PT 1,024个 19700101
57 AS202277 PT-SGE-ASN, PT 1,024个 19700101
58 AS210300 FIDELIDADE, PT 1,024个 19700101
59 AS208457 CLOUD-TELECOM, PT 1,024个 19700101
60 AS1897 EUNET, PT 768个 19920922
61 AS200942 NANIUM-AS, PT 768个 20150306
62 AS64472 RSIL, PT 768个 19700101
63 AS207002 COPAHOST, PT 768个 19700101
64 AS5533 CLARANET-, PT 512个 19960130
65 AS12833 GIGAPIX GigaPix - Portuguese Internet eXchange, PT 512个 19991201
66 AS13200 BANCOBPI Portugal, PT 512个 20000503
67 AS25137 , 512个 20020802
68 AS31413 UNICER-AS, PT 512个 20040510
69 AS43887 MJ-PT-AS, PT 512个 20071016
70 AS51171 VALICOM-AS, PT 512个 20100614
71 AS60353 DCC_RAFAH_ASN DCC RAFAH Governorate, PS 512个 20130805
72 AS204466 EVAN-PRATTEN, CA 512个 19700101
73 AS210221 ASNEW, PT 512个 19700101
74 AS208609 TEMNET, PT 512个 19700101
75 AS213388 VIEGAS, PT 512个 19700101
76 AS211680 AS-BITSIGHT, PT 512个 19700101
77 AS9118 Novo Banco, PT 256个 19981224
78 AS25005 FINIBANCO-AS, PT 256个 20020620
79 AS25253 CGDNET, PT 256个 20020912
80 AS28672 BPNNET-AS, PT 256个 20030124
81 AS28998 MONTEPIO-GERAL-PT-AS Portugal, PT 256个 20030505
82 AS29673 IMPRENSANACIONAL-PT-AS, PT 256个 20031107
83 AS31401 SICAMSERV, PT 256个 20040506
84 AS31497 CMVM-PT-AS, PT 256个 20040528
85 AS33813 COFIDIS-PT-AS, PT 256个 20040806
86 AS34873 IGIF-AS, PT 256个 20050422
87 AS38993 RENOVA-PT-AS, PT 256个 20051124
88 AS41159 DIRECCAO-GERAL, PT 256个 20060622
89 AS41345 VISABEIRA-DIGITAL-ASN, PT 256个 20060727
90 AS41708 CREDIBOM, PT 256个 20061012
91 AS43064 TEIXEIRAEDUARTE-AS, PT 256个 20070601
92 AS43643 TAP-AS TAP Air Portugal, PT 256个 20070905
93 AS43990 EUROP-ASSISTANCE, PT 256个 20071031
94 AS47310 CIMAL, PT 256个 20080602
95 AS50144 DDITS-AS, LU 256个 20091123
96 AS59690 CML-, PT 256个 20120921
97 AS197426 CRANEHOST, CZ 256个 20101124
98 AS199016 VISUALFORMA-AS, PT 256个 20120716
99 AS201154 IKEA-AS-AP, SE 256个 20150114
100 AS203783 GURTAM-IDNET-AS, LT 256个 19700101
101 AS206700 ALC-PT, FR 256个 19700101
102 AS207969 POINTS, PT 256个 19700101
103 AS213277 ALOJAR, PT 256个 19700101
104 AS212738 LUSOVPS, PT 256个 19700101
105 AS212073 NETUREZA, PT 256个 19700101
106 AS211273 ACIN, PT 256个 19700101
107 AS8609 Universidade Catolica Portuguesa, PT 0个 19980102
108 AS31513 , 0个 20040603
109 AS34122 IFAP-AS, PT 0个 20100526
110 AS35611 , 0个 20050916
111 AS39088 , 0个 20051209
112 AS41154 , 0个 20060621
113 AS58206 MDCC-AS, DE 0个 20120525
114 AS59787 WEBHS, PT 0个 20141001
115 AS196619 , 0个 20080118
116 AS199158 CHAMPATUX, FR 0个 20120827
117 AS201276 MGONCALVES, PT 0个 20141204
118 AS201251 BRIAN-FLUHARTY, US 0个 20141210
119 AS203767 CLARITAS-A, GB 0个 19700101
120 AS207126 APDL-AS, PT 0个 19700101
121 AS205920 FOGNET-SPAIN, CH 0个 19700101
122 AS205558 ANACOM, PT 0个 19700101
123 AS205242 ASF-AS, PT 0个 19700101
124 AS202410 ORG-PMFP1-RIPE, PT 0个 19700101
125 AS200366 CLOUDBLUE, SA 0个 19700101
126 AS210074 B-DINGEMANS-PRIVATE, NL 0个 19700101
127 AS207924 AS207924, GB 0个 19700101
128 AS207726 VMW-AMS04, IE 0个 19700101
129 AS207383 -Reserved AS-, ZZ 0个 19700101
130 AS213188 VIRT-IT-AS, PT 0个 19700101
131 AS212954 LUSOALOJA, PT 0个 19700101
132 AS212809 NIUP, PT 0个 19700101
133 AS210374 FINALSPACE, PT 0个 19700101
134 AS216237 AS_PORTOEDITORA, PT 0个 19700101
135 AS215538 SERGIO-NET, PT 0个 19700101
136 AS215446 SPTELECOM, PT 0个 19700101
137 AS215153 SILVIO-SILVA, PT 0个 19700101
138 AS215132 CODAVEL, PT 0个 19700101
139 AS215046 VYKIX, PT 0个 19700101
140 AS214936 POLIDO Personal ASN of Goncalo Alves Polido, PT 0个 19700101
141 AS214938 OXEDTECH-AS, PT 0个 19700101
142 AS214913 WEBTEJO-AS Joel Conceicao trading as WebTejo, PT 0个 19700101
143 AS214868 RUBENGUERREIRO, PT 0个 19700101

请输入地址
请输入地址